{"data":{"norad_id":67654,"intl_designator":"2026-022G","name":"STARLINK-36620","alt_names":[],"object_type":"PAYLOAD","status":"ACTIVE","operator":null,"country":"US","launch_date":"2026-02-02","launch_site_code":"AFWTR","launch_vehicle":null,"mission":null,"orbit_class":"UNKNOWN","rcs_meters":null,"size_class":null,"mass_kg":null,"dimensions":null,"purposes":["comms"],"wikipedia_slug":null,"has_3d_model":false,"image_url":null,"decayed_at":null,"tle_current":{"epoch":"2026-09-19T01:11:03.249024Z","epoch_age_seconds":194296,"freshness":"STALE","line1":"1 67654U 26022G   26262.04934316  .00013532  00000+0  42073-3 0  9990","line2":"2 67654  97.2860 293.6147 0001217  89.1153 271.0229 15.33444560 35200","mean_motion":15.3344456,"eccentricity":0.0001217,"inclination_deg":97.286,"raan_deg":293.6147,"arg_perigee_deg":89.1153,"mean_anomaly_deg":271.0229,"bstar":0.00042073,"rev_number":3520,"period_min":93.906231601878,"perigee_km":464.71160757232,"apogee_km":466.37735964543,"semimajor_km":6843.6814836089,"source":"CELESTRAK","updated_at":"2026-09-20T09:00:43.619410Z"}}}